Location: Gomont
(49.5000°N, 4.1667°E)
Time: 04:25:37
(UTC+00:00)

Daily predictions for brighter satellites

Satellite Brightness Start Highest point End
(mag) Time Altitude Azimuth Time Altitude Azimuth Time Altitude Azimuth
Cosmos 1844 Rocket 4.4 00:02:29 10° NW 00:05:29 19° W 00:05:29 19° W
Lacrosse 4 Rocket 4.3 00:05:08 10° NW 00:06:42 12° NNW 00:08:17 10° N
Cosmos 1943 Rocket 3.6 00:01:46 10° NNW 00:06:56 34° NE 00:10:24 18° ESE
SL-16 R/B 3.8 00:06:04 20° W 00:08:47 29° NW 00:13:42 10° NNE
ATLAS 5 CENTAUR R/B 3.7 00:06:45 10° NNW 00:10:44 29° NNE 00:15:30 10° E
RESURS DK-1 4.1 00:13:30 26° ENE 00:13:30 26° ENE 00:15:38 10° NE
Cosmos 972 Rocket 4.2 00:12:33 62° ENE 00:12:33 62° ENE 00:17:02 10° NNE
Okean 3 Rocket 4.5 00:11:24 10° N 00:15:30 44° ENE 00:15:30 44° ENE
Cosmos 1867 3.9 00:10:56 10° NW 00:15:26 54° WNW 00:15:26 54° WNW
NOSS 2-2 (D) 4.0 00:14:16 10° NW 00:18:12 68° NNE 00:18:12 68° NNE
USA 32 4.2 00:20:05 60° WNW 00:20:05 60° WNW 00:25:07 10° N
Cosmos 2344 4.0 00:20:31 10° NW 00:28:44 81° NE 00:40:02 10° SE
Tsikada Rocket 4.0 00:30:35 59° WSW 00:31:18 64° WNW 00:37:26 10° N
USA 215 4.0 00:28:11 10° ENE 00:34:05 35° SE 00:34:07 35° SE
Cosmos 1536 4.2 00:32:16 10° N 00:35:23 33° ENE 00:35:23 33° ENE
Lacrosse 5 3.0 00:35:37 20° WNW 00:38:43 41° NNW 00:43:34 10° ENE
Meteor 1-11 Rocket 4.4 00:35:37 10° N 00:40:59 48° ENE 00:42:35 38° ESE
NOSS 2-3 (C) 4.4 00:37:40 10° NW 00:43:16 80° SW 00:45:10 51° SSE
ATLAS 3B R/B 4.3 00:36:45 10° NW 00:43:56 39° NNE 00:51:12 10° E
NOSS 0 Rocket 4.0 00:45:55 57° SSE 00:46:39 62° ESE 00:52:43 10° NE
NOSS 2-3 (D) 4.4 00:42:45 10° NW 00:48:20 78° SW 00:50:19 49° SSE
NOSS 3-4 (A) 4.3 00:51:31 27° W 00:54:04 42° NNW 01:00:03 10° NE
NOSS 3-4 (C) 4.3 00:51:35 28° W 00:54:06 43° NNW 01:00:05 10° NE
Gbstr 26 Del rocket 3.2 00:57:32 68° NNE 00:57:32 68° NNE 01:01:20 10° ENE
H-2A R/B 3.9 00:54:29 10° NNW 00:57:34 20° WNW 00:57:39 20° WNW
Cosmos 2369 Rocket 4.4 00:55:10 10° N 00:59:38 23° NE 01:04:02 10° E
Cosmos 2237 Rocket 2.4 00:59:39 52° SE 01:00:19 55° ESE 01:05:53 10° NE
IDEFIX/ARIANE 42P 3.5 00:57:56 10° NNE 01:02:48 39° E 01:03:55 35° SE
Cosmos 1980 3.8 01:02:36 57° SE 01:03:16 61° ESE 01:08:51 10° NE
CZ-2D R/B 3.3 01:03:44 10° NNE 01:08:41 35° E 01:10:23 29° SE
USA 267 3.4 01:03:40 10° ESE 01:10:09 74° NNE 01:16:40 10° WNW
Cosmos 1151 Rocket 4.4 01:10:36 28° ESE 01:11:20 30° E 01:15:08 10° NNE
USA 308 4.2 01:14:03 27° E 01:14:03 27° E 01:16:08 10° ENE
Cosmos 2360 Rocket 4.1 01:10:54 14° W 01:14:04 21° NW 01:18:21 10° N
COSMOS 2428 3.0 01:13:37 47° W 01:14:48 56° NW 01:20:25 10° NNE
Meteor 2-9 Rocket 4.3 01:10:17 10° N 01:15:43 68° ENE 01:17:36 41° SE
Meteor 2-6 Rocket 4.4 01:15:50 54° WSW 01:16:53 64° WNW 01:22:43 10° N
Cosmos 1743 Rocket 3.8 01:12:36 10° N 01:16:53 60° ENE 01:17:16 58° ESE
Cosmos 1726 3.7 01:16:26 10° NNW 01:17:56 25° NNW 01:17:56 25° NNW
Resurs 1-4 Rocket 2.8 01:15:39 10° NNE 01:20:44 45° E 01:22:17 35° SE
Cosmos 2219 Rocket 3.6 01:23:12 22° W 01:25:26 28° NW 01:30:14 10° NNE
BREEZE-M DEB (TANK) 4.2 01:27:27 15° E 01:27:27 15° E 01:27:51 10° ENE
IRIDIUM 104 4.3 01:21:14 10° N 01:26:24 62° W 01:26:54 59° WSW
Cosmos 2221 4.1 01:26:50 24° WNW 01:26:50 24° WNW 01:30:05 10° NNW
Cosmos 2278 Rocket 2.6 01:27:26 10° NW 01:32:30 42° WSW 01:32:30 42° WSW
USA 290 3.8 01:36:25 10° N 01:39:26 34° ENE 01:40:17 29° E
COBE Rocket 4.0 01:37:29 10° NNE 01:42:06 63° E 01:43:15 46° SSE
Meteor 2-10 4.1 01:36:26 10° NNW 01:42:10 83° W 01:44:15 41° S
Cosmos 2333 Rocket 4.4 01:38:27 10° WNW 01:42:11 18° NW 01:45:56 10° N
Cosmos 1420 Rocket 3.9 01:36:59 10° NNW 01:42:17 83° WSW 01:44:11 41° SSE
Cosmos 1680 Rocket 3.6 01:42:34 49° S 01:43:58 74° ESE 01:49:17 10° NNE
ADEOS II 2.8 01:39:58 10° NNE 01:45:02 46° E 01:47:24 28° SSE
Cosmos 2195 Rocket 4.5 01:44:51 38° S 01:47:27 83° E 01:53:41 10° N
RESURS DK-1 3.7 01:49:06 27° WNW 01:49:41 28° NW 01:53:14 10° NNE
Meteor 1-28 Rocket 4.0 01:49:06 33° ESE 01:50:18 47° ENE 01:53:50 10° N
Cosmos 1943 Rocket 2.3 01:45:25 10° NW 01:50:54 51° WSW 01:51:51 46° SW
Nadezhda 4 Rocket 4.1 01:50:48 42° SW 01:52:43 61° WNW 01:58:48 10° N
ATLAS 2AS CENTAUR R/B 3.0 01:49:36 35° SSW 01:52:49 64° SE 01:59:53 10° NE
ATLAS 5 CENTAUR R/B 1.9 01:50:11 10° NW 01:55:03 77° SW 02:01:07 10° SE
Cosmos 2056 Rocket 3.5 01:50:33 10° NNW 01:55:58 77° WSW 01:58:37 31° SSE
Cosmos 1428 Rocket 4.4 01:53:46 39° SSW 01:56:18 81° W 02:02:33 10° N
SL-16 R/B 2.8 01:54:58 30° SSE 01:57:25 49° ESE 02:02:52 10° NE
Sich 1 3.3 01:57:27 10° NNW 02:01:28 45° W 02:01:28 45° W
Cosmos 1340 Rocket 3.0 02:01:32 49° SSE 02:02:20 64° E 02:06:16 10° NNE
CZ-2C R/B 2.5 02:00:14 35° S 02:02:36 74° WSW 02:07:55 10° NNW
GP-B 3.0 01:58:18 10° N 02:02:45 87° W 02:03:57 48° S
Meteor 1-27 Rocket 3.7 02:01:02 41° SW 02:02:59 69° WNW 02:08:37 10° N
GEOS 3 Rocket 3.5 01:59:38 10° SE 02:04:59 80° SW 02:10:19 10° NW
Okean 1 3.8 02:05:34 40° WNW 02:05:34 40° WNW 02:09:09 10° N
Cosmos 1624 Rocket 3.9 02:00:43 10° NNW 02:05:54 65° WSW 02:08:03 34° S
SL-16 R/B 2.6 02:00:25 11° SSE 02:06:27 81° ENE 02:12:43 10° NNW
ALOS 3.4 02:03:04 10° NNE 02:07:25 38° E 02:10:17 19° SSE
NPP 3.7 02:04:48 10° N 02:10:08 64° WNW 02:12:10 37° SW
Cosmos 1340 2.3 02:07:05 10° N 02:10:32 84° E 02:10:59 64° SSE
NOSS 3-1 (A) 4.2 02:03:34 10° NW 02:10:41 77° NE 02:19:25 10° SE
Cosmos 1805 2.9 02:09:05 10° NNW 02:12:49 76° W 02:13:21 61° SSW
Cosmos 1733 3.9 02:10:46 10° NNW 02:13:33 35° WNW 02:13:33 35° WNW
H-2A R/B 4.2 02:13:16 10° N 02:17:02 37° WNW 02:17:40 34° W
USA 215 3.2 02:11:00 10° ENE 02:17:35 87° NNW 02:21:28 27° WSW
Cosmos 1805 Rocket 4.4 02:14:17 10° NNW 02:18:06 31° W 02:18:06 31° W
Intercosmos 25 Rocket 4.0 02:15:47 10° N 02:19:42 76° E 02:25:50 10° SSE
COSMOS 2441 4.3 02:17:29 10° NNE 02:22:22 78° WNW 02:24:29 34° SSW
Lacrosse 5 3.3 02:17:51 10° WNW 02:22:38 37° N 02:27:24 10° ENE
Cosmos 1666 Rocket 3.5 02:18:32 10° NNW 02:23:00 77° W 02:25:08 30° S
Cosmos 1553 Rocket 4.0 02:17:38 10° N 02:23:55 86° E 02:30:02 10° S
NOSS 3-1 (C) 4.1 02:21:24 10° NW 02:28:35 60° SW 02:37:14 10° SSE
MSX 4.2 02:30:04 10° N 02:35:36 50° WNW 02:38:35 26° SW
ATLAS 3B R/B 3.0 02:27:44 10° NW 02:35:37 88° SW 02:43:25 10° SE
MINOTAUR IV R/B 4.5 02:34:17 10° NNW 02:38:45 86° WSW 02:43:11 10° SSE
Cosmos 1656 Rocket 3.5 02:34:29 10° NNW 02:39:54 73° WSW 02:45:18 10° SSE
Cosmos 2026 Rocket 4.3 02:37:38 26° SW 02:41:07 51° WNW 02:47:21 10° N
Cosmos 1470 4.3 02:37:47 10° N 02:41:19 35° ENE 02:44:49 10° SE
IDEFIX/ARIANE 42P 3.4 02:37:36 10° N 02:42:17 35° WNW 02:44:41 23° WSW
Cosmos 1328 Rocket 3.5 02:41:11 27° SSW 02:43:31 74° W 02:47:58 10° N
Cosmos 1626 1.7 02:42:32 35° S 02:43:48 88° E 02:47:07 10° N
Gbstr 26 Del rocket 3.0 02:39:47 10° WNW 02:44:04 72° NNE 02:47:53 10° E
Cosmos 2369 Rocket 2.1 02:38:42 10° NNW 02:44:21 83° WSW 02:49:56 10° SSE
USA 308 3.1 02:42:30 25° W 02:44:27 55° NNW 02:48:20 10° ENE
Cosmos 2237 Rocket 3.3 02:41:27 19° W 02:44:41 32° NW 02:49:48 10° NNE
Cosmos 1066 Rocket 4.4 02:40:40 14° S 02:45:20 70° E 02:50:55 10° NNE
Cosmos 1092 Rocket 4.4 02:42:40 25° SW 02:46:00 46° WNW 02:51:57 10° N
CZ-2C R/B 3.3 02:43:19 10° N 02:48:30 59° WNW 02:51:58 22° SW
CZ-2D R/B 2.8 02:43:43 10° N 02:48:45 41° WNW 02:51:41 23° WSW
Cosmos 1151 Rocket 4.1 02:47:22 25° WSW 02:48:46 30° WNW 02:52:38 10° N
Cosmos 1975 3.4 02:45:43 10° NNW 02:49:18 36° W 02:50:23 30° SW
Cosmos 921 Rocket 3.5 02:48:29 27° WSW 02:50:24 45° WNW 02:54:40 10° N
SAR-Lupe-1 4.2 02:48:55 10° N 02:52:28 57° WNW 02:54:03 29° SW
Cosmos 1633 Rocket 3.3 02:48:22 10° NNW 02:52:33 46° W 02:55:02 22° SSW
Cosmos 2297 3.8 02:47:16 10° NW 02:52:54 57° WSW 02:58:29 10° S
USA 267 3.4 02:47:15 10° SSE 02:53:26 46° SW 02:59:40 10° WNW
AQUA 4.0 02:49:16 10° N 02:53:53 55° WNW 02:56:42 23° SW
SAR-Lupe-4 3.9 02:53:12 10° N 02:56:39 48° WNW 02:58:13 27° SW
Cosmos 44 4.4 02:53:56 10° NNW 02:58:51 48° NE 03:03:27 10° ESE
Resurs 1-4 Rocket 3.1 02:55:45 10° N 03:00:23 31° WNW 03:03:20 18° WSW
Cosmos 1766 3.1 03:00:27 10° NNW 03:04:06 59° W 03:07:19 13° S
Cosmos 494 Rocket 4.0 03:02:00 20° SW 03:05:31 65° WNW 03:10:38 10° NNE
Iridium 51 3.8 03:05:13 15° S 03:07:52 85° W 03:11:21 10° N
Meteor 2-4 Rocket 4.1 03:04:17 19° SW 03:08:01 47° WNW 03:13:30 10° N
Cosmos 1943 3.7 03:03:47 10° S 03:09:20 57° ESE 03:14:56 10° NE
FENGYUN 3A 4.2 03:05:22 10° N 03:10:29 44° WNW 03:14:21 17° SW
USA 290 4.1 03:11:29 10° WNW 03:13:02 16° W 03:13:02 16° W
Cosmos 1048 Rocket 4.0 03:09:34 16° SSW 03:13:47 74° WNW 03:19:01 10° NNE
Cosmos 2263 4.1 03:08:21 10° NNW 03:13:57 68° WSW 03:19:34 10° SSE
UNK 4.2 03:10:15 12° SSW 03:14:15 40° W 03:18:37 10° NNW
Thor Agena Rocket 4.2 03:09:45 10° NNE 03:14:42 52° E 03:19:39 10° S
CZ-2C R/B 2.9 03:15:21 10° NNE 03:20:31 66° ESE 03:25:35 10° S
H-2A R/B 4.2 03:17:44 10° NE 03:21:56 25° E 03:26:11 10° SSE
ADEOS II 3.1 03:19:56 10° N 03:24:29 31° WNW 03:28:17 13° WSW
PAYLOAD A 4.3 03:20:17 10° NNE 03:25:05 61° ESE 03:29:44 10° S
USA 306 4.4 03:22:19 10° S 03:25:14 21° SE 03:28:00 10° E
EO 1 Delta rocket 4.4 03:21:41 10° N 03:26:04 43° WNW 03:30:33 11° SW
Cosmos 883 Rocket 4.4 03:21:54 10° NNW 03:28:02 79° W 03:34:09 10° S
Cosmos 1707 2.6 03:27:56 10° S 03:31:37 89° ESE 03:35:20 10° N
Cosmos 1302 Rocket 4.0 03:27:13 10° NNW 03:32:27 89° WSW 03:37:38 10° SSE
IRS-1D 3.8 03:27:35 10° NNE 03:32:46 73° ESE 03:38:00 10° S
CZ-4 R/B 3.8 03:29:02 10° N 03:33:42 65° WNW 03:38:17 10° SSW
Cosmos 1110 Rocket 4.5 03:30:55 10° NW 03:35:48 39° WSW 03:40:41 10° S
Cosmos 1842 3.2 03:32:16 10° SSW 03:35:57 60° WNW 03:39:41 10° N
YAOGAN 6 2.3 03:34:56 10° NNE 03:38:14 88° ESE 03:41:33 10° SSW
ATLAS 5 CENTAUR R/B 3.6 03:35:23 10° WNW 03:38:38 16° WSW 03:42:13 10° SSW
Cosmos 2266 Rocket 4.0 03:33:19 10° SSW 03:39:16 61° WNW 03:45:16 10° N
Cosmos 1603 4.1 03:35:43 10° SSW 03:41:15 66° ESE 03:46:52 10° NNE
S3M 4.3 03:35:39 10° NNW 03:41:35 49° W 03:47:33 10° SSW
SL-16 R/B 3.1 03:36:50 11° WSW 03:41:43 35° NW 03:46:55 10° NNE
SL-08 ROCKET BODY 4.5 03:36:55 10° SSW 03:42:50 65° WNW 03:48:54 10° N
CZ-2C R/B 4.5 03:41:53 10° WSW 03:43:44 12° W 03:45:36 10° WNW
ATLAS 2AS CENTAUR R/B 3.5 03:37:07 10° WSW 03:44:07 45° NNW 03:50:51 10° NE
Cosmos 1452 Rocket 4.2 03:39:32 10° NW 03:44:10 32° WSW 03:48:45 10° SSW
ALOS 3.3 03:40:31 10° N 03:44:31 29° WNW 03:48:30 10° WSW
Cosmos 1515 Rocket 4.2 03:40:31 10° SW 03:44:39 38° WNW 03:48:49 10° N
Cosmos 1869 Rocket 3.5 03:42:32 10° NNW 03:46:51 65° W 03:51:06 10° S
Envisat 3.2 03:44:25 10° N 03:49:24 57° WNW 03:54:22 10° SSW
Cosmos 1758 4.3 03:46:24 10° N 03:50:13 50° ENE 03:53:59 10° SSE
SL-16 R/B 3.8 03:46:16 10° SW 03:50:44 20° W 03:55:15 10° NW
USA 215 4.0 03:54:02 10° ENE 04:00:18 51° NNW 04:06:34 10° W
Cosmos 2228 Rocket 3.4 03:59:47 10° S 04:04:09 71° E 04:08:32 10° NNE
Meteor 1-22 Rocket 4.1 03:59:04 10° NNW 04:04:36 70° W 04:09:55 10° S
Lacrosse 5 2.2 04:01:04 10° NW 04:06:13 76° NNE 04:11:19 10° ESE
CZ-3 R/B 4.3 03:53:20 10° SW 04:10:52 25° S 04:18:13 10° SE
